Location: Unspecified
(48.2082°N, 0.0000°E)
Time: 03:26:47
(UTC+00:00)

Vanguard 1 - Pass Details

Date: 01 July 2019
Orbit: 653 x 3830 km, 34.3° (Epoch: 20 July)

Event Time Altitude Azimuth Distance (km) Brightness Sun altitude
Rises 21:20:15 0° 193° (SSW) 7,522 14.2 -9.8°
Reaches altitude 10° 21:27:01 10° 181° (S) 6,776 13.8 -10.5°
Maximum altitude 21:42:32 23° 138° (SE) 5,786 13.3 -12.0°
Drops below altitude 10° 21:56:47 10° 96° (E) 6,293 13.8 -13.2°
Sets 22:02:32 0° 84° (E) 6,902 14.2 -13.7°
